Regional Weather Roundup
Issued by NWS

Home | Current Version | Previous Version | Graphics & Text | Print | Product List | Glossary On
Versions: 1 2 3 4 5 6 7 8 9 10 11 12 13 14 15 16 17 18 19 20 21 22 23 24 25 26 27 28 29 30 31 32 33 34 35 36 37 38 39 40 41 42 43 44 45 46 47 48 49 50
000
ASUS43 KOAX 030210
RWRNE

WEATHER ROUNDUP FOR NEBRASKA
NATIONAL WEATHER SERVICE OMAHA NE
900 PM CDT TUE SEP 02 2014

NOTES: SATELLITE DATA IS BEING USED TO AUGMENT CLOUD COVER ABOVE
       12000 FEET.
       "FAIR" INDICATES FEW OR NO CLOUDS BELOW 12,000 FEET WITH NO
       SIGNIFICANT WEATHER AND/OR OBSTRUCTIONS TO VISIBILITY.

  * THESE STATIONS DO NOT REPORT WEATHER SUCH AS RAIN...SNOW OR FOG.

NEZ001>004-019>022-054>056-030300-
NEBRASKA PANHANDLE

CITY           SKY/WX    TMP DP  RH WIND       PRES   REMARKS
SCOTTSBLUFF    CLEAR     67  55  65 E6        29.85S
ALLIANCE       CLEAR     70  54  56 SE6       29.86S
CHADRON        CLEAR     68  49  50 E8        29.81S
KIMBALL        CLEAR     70  51  51 S8        29.93R
SIDNEY         CLEAR     67  52  58 SE8       29.91S
$$

NEZ057>060-069>072-079>082-030300-
SOUTHWEST NEBRASKA

CITY           SKY/WX    TMP DP  RH WIND       PRES   REMARKS
NORTH PLATTE   CLEAR     72  58  61 SE8       29.87S
IMPERIAL       CLEAR     75  58  55 S12       29.89R
LEXINGTON      CLEAR     73  65  76 SE8       29.91R
MCCOOK         CLEAR     76  64  66 S8        29.90S
OGALLALA       CLEAR     72  57  60 S7        29.87S
$$

NEZ005>010-023>029-035>040-094-030300-
NORTH CENTRAL NEBRASKA

CITY           SKY/WX    TMP DP  RH WIND       PRES   REMARKS
VALENTINE      PTCLDY    76  63  64 S14       29.82R
AINSWORTH      PTCLDY    71  61  71 SE9       29.85S
BROKEN BOW     CLEAR     71  61  70 SE10      29.90R
O`NEILL        PTCLDY    72  60  67 SE12      29.88F
ORD            CLEAR     72  60  66 SE12      29.88S
THEDFORD       PTCLDY    73  60  64 SE9       29.87S
$$

NEZ041-046>049-061>064-073>077-083>087-030300-
SOUTH CENTRAL NEBRASKA

CITY           SKY/WX    TMP DP  RH WIND       PRES   REMARKS
GRAND ISLAND   CLEAR     71  62  73 SE7       29.93R
AURORA         CLEAR     67  64  89 SE6       29.93S
HASTINGS       CLEAR     73  58  59 SE9       29.93R
HEBRON         CLEAR     68  60  77 SE3       29.93S
HOLDREGE       CLEAR     69  64  82 SE7       29.93R
KEARNEY *      CLEAR     68  61  77 E8        29.93R
YORK           CLEAR     68 N/A N/A SE6       29.94R
$$

NEZ011>018-030>034-042>045-030300-
NORTHEAST NEBRASKA

CITY           SKY/WX    TMP DP  RH WIND       PRES   REMARKS
NORFOLK        CLEAR     67  60  78 SE7       29.92R
ALBION         CLEAR     67  61  80 SE5       29.92R
BLAIR          CLEAR     70  60  72 SE5       29.95R
FREMONT        CLEAR     70  61  73 CALM      29.94R
TEKAMAH        CLEAR     65  62  90 S6        29.94R
WAYNE          CLEAR     63  60  90 S6        29.92S
$$

NEZ050>053-065>068-078-088>093-030300-
SOUTHEAST NEBRASKA

CITY           SKY/WX    TMP DP  RH WIND       PRES   REMARKS
LINCOLN        CLEAR     74  58  57 E7        29.95R
OMAHA EPPLEY   CLEAR     71  61  70 SE5       29.94R
BEATRICE       CLEAR     73  60  63 E3        29.94S
FALLS CITY     CLEAR     72  64  76 E3        29.94R
NEBRASKA CITY  CLEAR     69  62  78 E3        29.96R
PLATTSMOUTH    CLEAR     72  58  63 SE5       29.96R
$$

NEZ044-045-051>053-067-030300-
OMAHA AREA

CITY           SKY/WX    TMP DP  RH WIND       PRES   REMARKS
OMAHA EPPLEY   CLEAR     71  61  70 SE5       29.94R
BLAIR          CLEAR     70  60  72 SE5       29.95R
FREMONT        CLEAR     70  61  73 CALM      29.94R
MILLARD        CLEAR     69  62  78 CALM      29.94R
OFFUTT AFB     CLEAR     64  64  99 E3        29.94R
PLATTSMOUTH    CLEAR     72  58  63 SE5       29.96R
WAHOO          FAIR      67  60  77 CALM      29.95R
$$



USA.gov is the U.S. government's official web portal to all federal, state and local government web resources and services.